When you browse on this site, cookies collect data to enhance your experience and personalize the content and advertising you see.
Visit our Privacy Policy to learn more. By continuing to use the site, you agree to this use of cookies and data.
  • In Austria
  • List of Countries
  • For 7 days
  • Water Temperature
  • Weather Map
  • News
  • Weather Widgets
  • user-avatar
    Login

    Hourly Weather Laszkar Gah

    Today, 20 February, Thursday

    Time Temperature Precipitation Wind Pressure Humidity
    00:00 +9°C° 0 mm 2 mps 695 mmHg 44%
    01:00 +9°C° 0 mm 1 mps 695 mmHg 45%
    02:00 +9°C° 0 mm 1 mps 695 mmHg 45%
    03:00 +9°C° 0 mm 1 mps 695 mmHg 46%
    04:00 +8°C° 0 mm 1 mps 695 mmHg 48%
    05:00 +8°C° 0 mm 1 mps 695 mmHg 47%
    06:00 +7°C° 0 mm 2 mps 696 mmHg 46%
    07:00 +7°C° 0 mm 2 mps 696 mmHg 46%
    08:00 +8°C° 0 mm 2 mps 697 mmHg 42%
    09:00 +10°C° 0 mm 2 mps 697 mmHg 38%
    10:00 +12°C° 0 mm 3 mps 697 mmHg 35%
    11:00 +13°C° 0 mm 3 mps 697 mmHg 32%
    12:00 +15°C° 0 mm 2 mps 696 mmHg 29%
    13:00 +16°C° 0 mm 2 mps 696 mmHg 26%
    14:00 +16°C° 0 mm 2 mps 696 mmHg 25%
    15:00 +17°C° 0 mm 2 mps 696 mmHg 23%
    16:00 +17°C° 0 mm 2 mps 695 mmHg 21%
    17:00 +16°C° 0 mm 2 mps 695 mmHg 24%
    18:00 +15°C° 0 mm 2 mps 696 mmHg 27%
    19:00 +13°C° 0 mm 3 mps 696 mmHg 30%
    20:00 +13°C° 0 mm 3 mps 696 mmHg 30%
    21:00 +13°C° 0 mm 3 mps 696 mmHg 29%
    22:00 +13°C° 0 mm 4 mps 696 mmHg 29%
    23:00 +12°C° 0 mm 4 mps 696 mmHg 30%

    Tomorrow, 21 February, Friday

    Time Temperature Precipitation Wind Pressure Humidity
    00:00 +12°C° 0 mm 4 mps 695 mmHg 30%
    01:00 +11°C° 0 mm 4 mps 695 mmHg 31%
    02:00 +11°C° 0 mm 4 mps 695 mmHg 32%
    03:00 +10°C° 0 mm 5 mps 694 mmHg 33%
    04:00 +10°C° 0 mm 5 mps 694 mmHg 35%
    05:00 +10°C° 0 mm 5 mps 695 mmHg 36%
    06:00 +10°C° 0 mm 6 mps 695 mmHg 36%
    07:00 +11°C° 0 mm 6 mps 695 mmHg 37%
    08:00 +12°C° 0 mm 7 mps 696 mmHg 33%
    09:00 +15°C° 0 mm 8 mps 696 mmHg 30%
    10:00 +16°C° 0 mm 9 mps 696 mmHg 26%
    17:00 +21°C° 0 mm 6 mps 696 mmHg 24%
    18:00 +19°C° 0 mm 5 mps 696 mmHg 26%
    19:00 +17°C° 0 mm 5 mps 697 mmHg 29%
    20:00 +17°C° 0 mm 5 mps 697 mmHg 31%
    21:00 +17°C° 0 mm 5 mps 697 mmHg 32%
    22:00 +16°C° 0 mm 6 mps 697 mmHg 33%
    23:00 +16°C° 0 mm 6 mps 697 mmHg 33%

    Day after tomorrow, 22 February, Saturday

    Time Temperature Precipitation Wind Pressure Humidity
    00:00 +16°C° 0 mm 6 mps 697 mmHg 34%
    01:00 +15°C° 0 mm 6 mps 697 mmHg 35%
    02:00 +15°C° 0 mm 6 mps 696 mmHg 37%
    03:00 +14°C° 0 mm 5 mps 696 mmHg 39%
    04:00 +14°C° 0 mm 5 mps 696 mmHg 40%
    05:00 +13°C° 0 mm 5 mps 696 mmHg 41%
    06:00 +13°C° 0 mm 5 mps 697 mmHg 42%
    07:00 +13°C° 0 mm 5 mps 697 mmHg 43%
    08:00 +15°C° 0 mm 5 mps 698 mmHg 38%
    09:00 +17°C° 0 mm 5 mps 698 mmHg 34%
    10:00 +20°C° 0 mm 6 mps 699 mmHg 29%
    11:00 +21°C° 0 mm 5 mps 699 mmHg 27%
    12:00 +22°C° 0 mm 5 mps 698 mmHg 25%
    13:00 +23°C° 0 mm 4 mps 698 mmHg 23%
    14:00 +25°C° 0 mm 4 mps 698 mmHg 24%
    15:00 +25°C° 0 mm 3 mps 697 mmHg 24%
    16:00 +25°C° 0 mm 3 mps 697 mmHg 24%
    17:00 +24°C° 0 mm 3 mps 697 mmHg 27%
    18:00 +21°C° 0 mm 3 mps 697 mmHg 30%
    19:00 +20°C° 0 mm 3 mps 697 mmHg 34%
    20:00 +19°C° 0 mm 3 mps 697 mmHg 35%
    21:00 +19°C° 0 mm 3 mps 697 mmHg 36%
    22:00 +18°C° 0 mm 3 mps 697 mmHg 38%
    23:00 +18°C° 0 mm 4 mps 697 mmHg 38%

    23 February, Sunday

    Time Temperature Precipitation Wind Pressure Humidity
    00:00 +17°C° 0 mm 4 mps 696 mmHg 39%
    01:00 +17°C° 0 mm 4 mps 696 mmHg 40%
    02:00 +15°C° 0 mm 4 mps 696 mmHg 42%
    03:00 +15°C° 0 mm 5 mps 695 mmHg 43%
    04:00 +14°C° 0 mm 5 mps 695 mmHg 45%
    05:00 +14°C° 0 mm 5 mps 695 mmHg 45%
    06:00 +14°C° 0 mm 5 mps 695 mmHg 46%
    07:00 +13°C° 0 mm 5 mps 695 mmHg 46%
    08:00 +15°C° 0 mm 5 mps 696 mmHg 42%
    09:00 +17°C° 0 mm 5 mps 697 mmHg 37%
    10:00 +20°C° 0 mm 5 mps 697 mmHg 33%
    11:00 +21°C° 0 mm 5 mps 697 mmHg 30%
    12:00 +22°C° 0 mm 4 mps 697 mmHg 28%
    13:00 +23°C° 0 mm 4 mps 696 mmHg 25%
    14:00 +23°C° 0 mm 4 mps 696 mmHg 25%
    15:00 +25°C° 0 mm 3 mps 695 mmHg 24%
    16:00 +25°C° 0 mm 3 mps 695 mmHg 24%
    17:00 +24°C° 0 mm 3 mps 695 mmHg 27%
    18:00 +21°C° 0 mm 3 mps 695 mmHg 30%
    19:00 +20°C° 0 mm 2 mps 695 mmHg 33%
    20:00 +20°C° 0 mm 2 mps 695 mmHg 35%
    21:00 +19°C° 0 mm 2 mps 695 mmHg 36%
    22:00 +18°C° 0 mm 3 mps 695 mmHg 38%
    23:00 +18°C° 0 mm 3 mps 695 mmHg 39%

    24 February, Monday

    Time Temperature Precipitation Wind Pressure Humidity
    00:00 +17°C° 0 mm 3 mps 695 mmHg 39%
    01:00 +17°C° 0 mm 3 mps 694 mmHg 40%
    02:00 +16°C° 0 mm 3 mps 694 mmHg 41%
    03:00 +16°C° 0 mm 3 mps 694 mmHg 42%
    04:00 +14°C° 0 mm 3 mps 693 mmHg 43%
    05:00 +14°C° 0 mm 3 mps 694 mmHg 43%
    06:00 +14°C° 0 mm 3 mps 694 mmHg 43%
    07:00 +14°C° 0 mm 3 mps 695 mmHg 43%
    08:00 +16°C° 0 mm 3 mps 695 mmHg 39%
    09:00 +18°C° 0 mm 3 mps 696 mmHg 35%
    10:00 +20°C° 0 mm 2 mps 696 mmHg 31%
    11:00 +21°C° 0 mm 2 mps 696 mmHg 29%
    12:00 +23°C° 0 mm 1 mps 696 mmHg 27%
    13:00 +22°C° 0 mm 0 mps 695 mmHg 25%
    14:00 +22°C° 0 mm 0 mps 695 mmHg 25%
    15:00 +22°C° 0 mm 0 mps 695 mmHg 24%
    16:00 +22°C° 0 mm 0 mps 694 mmHg 23%
    17:00 +21°C° 0 mm 0 mps 694 mmHg 28%
    18:00 +22°C° 0 mm 1 mps 694 mmHg 32%
    19:00 +21°C° 0 mm 1 mps 694 mmHg 36%
    20:00 +20°C° 0 mm 1 mps 695 mmHg 37%
    21:00 +20°C° 0 mm 1 mps 695 mmHg 37%
    22:00 +19°C° 0 mm 1 mps 695 mmHg 37%
    23:00 +18°C° 0 mm 2 mps 695 mmHg 37%

    25 February, Tuesday

    Time Temperature Precipitation Wind Pressure Humidity
    00:00 +18°C° 0 mm 3 mps 695 mmHg 36%
    01:00 +18°C° 0 mm 3 mps 694 mmHg 36%
    02:00 +17°C° 0 mm 3 mps 694 mmHg 37%
    03:00 +17°C° 0 mm 4 mps 694 mmHg 39%
    04:00 +17°C° 0 mm 4 mps 694 mmHg 40%
    05:00 +15°C° 0 mm 4 mps 694 mmHg 42%
    06:00 +15°C° 0 mm 4 mps 694 mmHg 43%
    07:00 +14°C° 0 mm 4 mps 694 mmHg 44%
    08:00 +16°C° 0 mm 5 mps 694 mmHg 40%
    09:00 +19°C° 0 mm 5 mps 695 mmHg 35%
    10:00 +20°C° 0 mm 5 mps 695 mmHg 30%
    11:00 +22°C° 0 mm 5 mps 695 mmHg 27%
    12:00 +23°C° 0 mm 5 mps 694 mmHg 24%
    13:00 +25°C° 0 mm 5 mps 694 mmHg 22%
    14:00 +26°C° 0 mm 5 mps 694 mmHg 21%
    15:00 +26°C° 0 mm 5 mps 693 mmHg 21%
    16:00 +26°C° 0 mm 6 mps 693 mmHg 21%
    17:00 +23°C° 0 mm 6 mps 693 mmHg 24%
    18:00 +22°C° 0 mm 7 mps 693 mmHg 26%
    19:00 +21°C° 0 mm 7 mps 693 mmHg 29%
    20:00 +21°C° 0 mm 7 mps 693 mmHg 30%
    21:00 +20°C° 0 mm 7 mps 693 mmHg 30%
    22:00 +20°C° 0 mm 7 mps 693 mmHg 31%
    23:00 +20°C° 0 mm 7 mps 693 mmHg 32%
    Show more